Синыйджу

Северная Корея     40°06′25″N   124°24′02″E
темп.,
°C
ветер,
м/с
пор.,
м/с
влажн.,
%
обл.,
%
осадки,
мм/ч
давл.,
гПа
погр.,
м
16 апреля, пт
пт1600:00+8ююв71659100 0.0 1012544
03:00+7ю91475100 1.4 10111108
06:00+7ю81388100 2.2 1008918
09:00+10юз58615 2.3 10101357
12:00+12юз8104161 0.0 10112191
15:00+13юз811345 0.0 10112117
18:00+12юз6104210 0.0 1011668
21:00+9юз514495 0.0 1013425
17 апреля, сб
сб1700:00+8юз51457100 0.0 1014661
03:00+8зюз81564100 0.0 1013772
06:00+6юз498289 1.1 1013439
09:00+9юз346726 1.4 1013867
12:00+11ююз454899 0.4 10121503
15:00+12юз5641100 1.0 10111983
18:00+11ссз89525 0.1 10111338
21:00+8ссз611665 0.1 1014647
18 апреля, вс
вс1800:00+7сз486370 0.0 1015238
03:00+6ссз34700 0.0 101557
06:00+5ссз22720 0.0 101626
09:00+10ссз46520 0.0 1017522
12:00+15ссз67340 0.0 10161467
15:00+18ссз46260 0.0 10131781
18:00+18з35240 0.0 10131153
21:00+10ююз22520 0.0 101442
19 апреля, пн
пн1900:00+9юв22620 0.0 101423
03:00+8юв22600 0.0 101315
06:00+7ююв346497 0.0 101357
09:00+12ююв4549100 0.0 1013375
12:00+16ю664127 0.0 1013615
15:00+17ююз45435 0.0 1011541
18:00+14ю46530 0.0 1011348
21:00+11юв35670 0.0 1013115
20 апреля, вт
вт2000:00+10юв22700 0.0 101528
03:00+9ююв11740 0.0 101612
06:00+8св22750 0.0 101812
09:00+14в11514 0.0 1019305
12:00+21св22360 0.0 1019712
15:00+22юз53340 0.0 1019514
18:00+19ююз333919 0.0 1019261
21:00+15ю11487 0.0 102114